User: anonymous
Location: B
(0.0000°N, 0.0000°E)
Time: 01:30:24
(UTC+02:00)
Language:

Cosmos 1025 Rocket - Orbit

View from above orbital plane
View from above orbital plane
View from above satellite
View from above satellite

Ground track
Ground track

The orbit data is extracted from the following two-line orbital elements,

1 10974U 78067B   14259.49524513  .00000537  00000-0  57603-4 0  3986
2 10974 082.4833 040.4450 0018921 074.6421 006.7396 14.86652052958263
Epoch (UTC): 16 September 2014 11:53:09
Eccentricity: 0.0018921
inclination: 82.4833°
perigee height: 595 km
apogee height: 621 km
right ascension of ascending node: 40.4450°
argument of perigee: 74.6421°
revolutions per day: 14.86652052
mean anomaly at epoch: 6.7396°
orbit number at epoch: 95826

The dashed part of the orbit path shows where the satellite is in the earth's shadow,  

DLR